This demonstration page uses our WeatherBlox Daily Observations layout. Learn more.

Left ArrowRight Arrow

40.92945, -100.16068

Hourly Observations for February 7, 2022

Temp ( °F °C ) Dew Point ( °F °C ) Humidity (%) Winds ( mph kmh ) Pressure ( in mb ) Visibility ( mi km ) Precip ( " mm )
12:15 am 00:15 Clear 24 -4.2 14 -9.9 65 65 W 5 7 30.41 1030 10 16 0.00 0.00
12:35 am 00:35 Clear 25 -3.7 15 -9.4 65 65 WNW 5 7 30.41 1030 10 16 0.00 0.00
12:55 am 00:55 Clear 26 -3.1 16 -8.9 65 65 WNW 5 7 30.40 1029 10 16 0.00 0.00
1:15 am 01:15 Clear 27 -2.9 17 -8.4 66 66 NNW 5 7 30.40 1029 10 16 0.00 0.00
1:35 am 01:35 Clear 25 -4 16 -9.1 68 68 NW 7 11 30.41 1030 10 16 0.00 0.00
1:55 am 01:55 Clear 26 -3.1 16 -8.8 65 65 Calm 30.40 1029 10 16 0.00 0.00
2:15 am 02:15 Clear 26 -3.6 17 -8.6 69 69 SW 5 7 30.39 1029 10 16 0.00 0.00
2:35 am 02:35 Clear 24 -4.4 16 -8.8 72 72 WNW 6 9 30.40 1030 10 16 0.00 0.00
2:55 am 02:55 Clear 21 -6.1 14 -10.1 74 74 WNW 9 15 30.41 1030 10 16 0.00 0.00
3:15 am 03:15 Clear 22 -5.7 16 -9 78 78 WNW 8 13 30.41 1030 10 16 0.00 0.00
3:35 am 03:35 Clear 22 -5.6 16 -9 77 77 WNW 8 13 30.41 1030 10 16 0.00 0.00
3:55 am 03:55 Clear 21 -6 16 -8.7 81 81 WNW 12 19 30.41 1030 10 16 0.00 0.00
4:15 am 04:15 Clear 22 -5.6 17 -8.3 82 82 WNW 9 15 30.41 1030 10 16 0.00 0.00
4:35 am 04:35 Clear 21 -6 17 -8.5 83 83 WNW 9 15 30.40 1029 10 16 0.00 0.00
4:55 am 04:55 Clear 20 -6.5 17 -8.6 85 85 WNW 8 13 30.39 1029 10 16 0.00 0.00
5:15 am 05:15 Clear 22 -5.8 18 -8 85 85 WNW 7 11 30.40 1029 10 16 0.00 0.00
5:35 am 05:35 Clear 20 -6.4 17 -8.5 85 85 WNW 9 15 30.39 1029 10 16 0.00 0.00
5:55 am 05:55 Clear 20 -6.5 16 -8.7 85 85 WNW 10 17 30.40 1030 10 16 0.00 0.00
6:15 am 06:15 Clear 19 -7.1 15 -9.2 85 85 WNW 10 17 30.41 1030 10 16 0.00 0.00
6:35 am 06:35 Clear 20 -6.7 16 -8.8 85 85 WNW 8 13 30.41 1030 10 16 0.00 0.00
6:55 am 06:55 Clear 20 -6.4 17 -8.6 85 85 NW 9 15 30.40 1030 10 16 0.00 0.00
7:15 am 07:15 Clear 20 -6.5 17 -8.5 86 86 WNW 9 15 30.40 1030 10 16 0.00 0.00
7:35 am 07:35 Clear 19 -7 16 -9 86 86 WNW 8 13 30.41 1030 10 16 0.00 0.00
7:55 am 07:55 Partly Cloudy 19 -7.5 15 -9.3 87 87 WNW 8 13 30.42 1030 10 16 0.00 0.00
8:15 am 08:15 Mostly Cloudy 20 -6.9 16 -9 85 85 NW 7 11 30.42 1030 10 16 0.00 0.00
8:35 am 08:35 Partly Cloudy 22 -5.3 18 -7.7 83 83 NW 8 13 30.40 1030 10 16 0.00 0.00
8:55 am 08:55 Sunny 27 -3 20 -6.5 77 77 WNW 10 17 30.38 1029 10 16 0.00 0.00
9:15 am 09:15 Sunny 30 -1.1 22 -5.8 71 71 WNW 13 20 30.36 1028 10 16 0.00 0.00
9:35 am 09:35 Sunny 33 0.6 22 -5.6 64 64 WNW 14 22 30.34 1027 10 16 0.00 0.00
9:55 am 09:55 Sunny 36 2 21 -6 56 56 WNW 18 30 30.33 1027 10 16 0.00 0.00
10:15 am 10:15 Sunny 38 3.3 22 -5.8 52 52 WNW 16 26 30.31 1026 10 16 0.00 0.00
10:35 am 10:35 Sunny 40 4.5 21 -5.9 47 47 WNW 17 28 30.29 1026 10 16 0.00 0.00
10:55 am 10:55 Sunny 42 5.6 22 -5.6 45 45 WNW 15 24 30.28 1025 10 16 0.00 0.00
11:15 am 11:15 Sunny 44 6.9 22 -5.4 42 42 WNW 15 24 30.26 1025 10 16 0.00 0.00
11:35 am 11:35 Sunny 47 8.1 22 -5.4 38 38 WNW 14 22 30.24 1024 10 16 0.00 0.00
11:55 am 11:55 Sunny 49 9.5 22 -5.5 35 35 WNW 12 19 30.22 1023 10 16 0.00 0.00
12:15 pm 12:15 Sunny 50 10.1 22 -5.6 33 33 WNW 12 19 30.21 1023 10 16 0.00 0.00
12:35 pm 12:35 Sunny 53 11.5 22 -5.5 30 30 NW 9 15 30.19 1022 10 16 0.00 0.00
12:55 pm 12:55 Sunny 54 12.3 22 -5.5 29 29 WNW 13 20 30.17 1022 10 16 0.00 0.00
1:15 pm 13:15 Sunny 56 13.1 22 -5.7 27 27 NW 12 19 30.15 1021 10 16 0.00 0.00
1:35 pm 13:35 Sunny 56 13.5 22 -5.8 26 26 NW 10 17 30.13 1020 10 16 0.00 0.00
1:55 pm 13:55 Sunny 57 13.7 22 -5.8 26 26 WNW 15 24 30.12 1020 10 16 0.00 0.00
2:15 pm 14:15 Sunny 57 14.1 21 -6 25 25 WNW 9 15 30.10 1019 10 16 0.00 0.00
2:35 pm 14:35 Sunny 58 14.4 21 -6.1 24 24 W 12 19 30.10 1019 10 16 0.00 0.00
2:55 pm 14:55 Sunny 58 14.7 21 -6.1 23 23 W 9 15 30.09 1019 10 16 0.00 0.00
3:15 pm 15:15 Sunny 59 15.1 20 -6.5 22 22 WNW 10 17 30.07 1018 10 16 0.00 0.00
3:35 pm 15:35 Sunny 59 15.1 20 -6.5 22 22 W 10 17 30.06 1018 10 16 0.00 0.00
3:55 pm 15:55 Sunny 59 15.2 20 -6.8 21 21 W 10 17 30.06 1018 10 16 0.00 0.00
4:15 pm 16:15 Sunny 59 15.1 20 -6.7 22 22 W 10 17 30.05 1018 10 16 0.00 0.00
4:35 pm 16:35 Sunny 59 15.2 19 -7.2 21 21 WNW 10 17 30.05 1018 10 16 0.00 0.00
4:55 pm 16:55 Sunny 58 14.7 19 -7.4 21 21 W 10 17 30.05 1018 10 16 0.00 0.00
5:15 pm 17:15 Sunny 57 14 19 -7.5 22 22 W 10 17 30.05 1018 10 16 0.00 0.00
5:35 pm 17:35 Sunny 54 12.3 17 -8.2 23 23 W 9 15 30.06 1018 10 16 0.00 0.00
5:55 pm 17:55 Sunny 48 8.9 16 -9.1 27 27 W 8 13 30.09 1019 10 16 0.00 0.00
6:15 pm 18:15 Clear 46 7.8 16 -9.1 29 29 WSW 7 11 30.09 1019 10 16 0.00 0.00
6:35 pm 18:35 Clear 46 7.6 15 -9.5 29 29 SW 8 13 30.08 1019 7 11 0.00 0.00
6:55 pm 18:55 Clear 41 5.2 15 -9.7 34 34 SW 10 17 30.11 1020 10 16 0.00 0.00
7:15 pm 19:15 Clear 36 2.2 13 -10.5 39 39 WSW 7 11 30.14 1020 10 16 0.00 0.00
7:35 pm 19:35 Clear 36 2.2 15 -9.6 42 42 WSW 8 13 30.14 1020 10 16 0.00 0.00
7:55 pm 19:55 Clear 34 1 15 -9.6 45 45 WSW 9 15 30.15 1021 10 16 0.00 0.00
8:15 pm 20:15 Clear 34 1 15 -9.3 47 47 WSW 7 11 30.15 1021 10 16 0.00 0.00
8:35 pm 20:35 Clear 34 1.1 15 -9.3 46 46 SW 9 15 30.14 1021 10 16 0.00 0.00
8:55 pm 20:55 Clear 35 1.7 16 -8.9 46 46 SW 8 13 30.12 1020 10 16 0.00 0.00
9:15 pm 21:15 Clear 36 2 17 -8.6 46 46 SW 9 15 30.12 1020 10 16 0.00 0.00
9:35 pm 21:35 Clear 35 1.7 16 -9 45 45 SW 8 13 30.12 1020 10 16 0.00 0.00
9:55 pm 21:55 Clear 35 1.7 17 -8.6 47 47 WSW 7 11 30.12 1020 10 16 0.00 0.00
10:15 pm 22:15 Clear 35 1.9 17 -8.6 46 46 WSW 7 11 30.11 1020 10 16 0.00 0.00
10:35 pm 22:35 Clear 34 1.2 17 -8.4 49 49 WSW 7 11 30.11 1019 10 16 0.00 0.00
10:55 pm 22:55 Clear 37 2.6 19 -7.1 49 49 W 9 15 30.09 1019 10 16 0.00 0.00
11:15 pm 23:15 Clear 33 0.6 18 -7.8 54 54 W 10 17 30.11 1020 10 16 0.00 0.00
11:35 pm 23:35 Clear 32 -0.1 17 -8.1 55 55 W 6 9 30.10 1019 10 16 0.00 0.00
11:55 pm 23:55 Clear 32 0.2 18 -7.9 55 55 W 7 11 30.08 1019 10 16 0.00 0.00

Powered by AerisWeather